FIFI KBDL-KBDL

Flight info

Callsign FIFI
Flight time N/A
Altitude 1200
Route
Aircraft B29/M-DOV/C

Departure

Time 2025-12-30 01:02
Airport Bradley International Airport (KBDL)

Arrival

Time N/A
Airport Bradley International Airport (KBDL)
Time Latitude Longitude Altitude Speed Heading
2025-12-30 00:50 41.93468 -72.69891 185 ft 0 kts 358°
2025-12-30 00:52 41.93481 -72.69867 185 ft 3 kts 162°
2025-12-30 00:52 41.93439 -72.69844 183 ft 5 kts 158°
2025-12-30 00:53 41.93274 -72.69737 180 ft 0 kts 132°
2025-12-30 00:54 41.93230 -72.69675 179 ft 12 kts 133°
2025-12-30 00:55 41.93168 -72.69591 175 ft 9 kts 136°
2025-12-30 00:55 41.93133 -72.69466 170 ft 3 kts 45°
2025-12-30 00:56 41.93160 -72.69431 171 ft 10 kts 44°
2025-12-30 00:56 41.93386 -72.69135 177 ft 28 kts 44°
2025-12-30 00:56 41.93507 -72.68972 181 ft 25 kts 43°
2025-12-30 00:57 41.93603 -72.68664 184 ft 9 kts 133°
2025-12-30 00:58 41.93492 -72.68505 184 ft 20 kts 135°
2025-12-30 00:58 41.93346 -72.68309 185 ft 10 kts 135°
2025-12-30 00:59 41.93261 -72.68194 184 ft 16 kts 135°
2025-12-30 00:59 41.93053 -72.67910 182 ft 20 kts 135°
2025-12-30 01:00 41.92915 -72.67722 181 ft 3 kts 133°
2025-12-30 01:00 41.92878 -72.67661 181 ft 12 kts 116°
2025-12-30 01:00 41.92971 -72.67576 181 ft 10 kts 304°
2025-12-30 01:01 41.93864 -72.68810 303 ft 115 kts 312°
2025-12-30 01:02 41.95658 -72.71250 1135 ft 123 kts 350°
2025-12-30 01:02 41.96331 -72.69625 1599 ft 133 kts 127°
2025-12-30 01:03 41.94736 -72.67754 1919 ft 165 kts 138°
2025-12-30 01:03 41.93047 -72.65331 2265 ft 179 kts 130°